Regional Weather Roundup
Issued by NWS Newport/Morehead, NC

Current Version | Previous Version | Graphics & Text | Print | Product List | Glossary On
Versions: 1 2 3 4 5 6 7 8 9 10 11 12 13 14 15 16 17 18 19 20 21 22 23 24 25 26 27 28 29 30 31 32 33 34 35 36 37 38 39 40 41 42 43 44 45 46 47 48 49 50
000 ASUS42 KMHX 030528 RWRMHX WEATHER ROUNDUP FOR EASTERN NORTH CAROLINA NATIONAL WEATHER SERVICE NEWPORT/MOREHEAD CITY NC 1200 AM EST TUE MAR 03 2015 NOTE: "FAIR" INDICATES FEW OR NO CLOUDS BELOW 12,000 FEET WITH NO SIGNIFICANT WEATHER AND/OR OBSTRUCTIONS TO VISIBILITY NCZ015>017-031-032-045>047-102-103-030600- NORTH COAST CITY SKY/WX TMP DP RH WIND PRES REMARKS EDENTON FAIR 37 24 60 NE3 30.40S ELIZABETH CITY CLOUDY 37 24 59 NE9 30.40S KITTY HAWK FAIR 37 29 71 N5 30.37F MANTEO FAIR 37 27 65 NE10 30.39S $$ NCZ045>047-081-094-103-104-030600- CENTRAL COAST CITY SKY/WX TMP DP RH WIND PRES REMARKS FRISCO FAIR 41 32 70 NE7 30.37R SWANQUARTER N/A 37 N/A N/A NE2 30.36S $$ NCZ095-097-098-100-101-030600- SOUTHERN COAST CITY SKY/WX TMP DP RH WIND PRES REMARKS BEAUFORT FAIR 40 29 64 NE7 30.38R CEDAR ISLAND N/A 39 N/A N/A N7 30.41S JACKSONVILLE CLEAR 40 30 67 NE9 30.37F PINEY ISLAND N/A N/A N/A N/A MISG 30.38S WILMINGTON FAIR 42 35 76 NE10 30.35F $$ NCZ011>013-027>030-043-044-078>080-089-090>093-098-030600- COASTAL PLAIN CITY SKY/WX TMP DP RH WIND PRES REMARKS AHOSKIE FAIR 36 21 55 NE3 30.40F CLINTON FAIR 42 36 80 E7 30.36S ELIZABETHTOWN FAIR 42 37 79 E5 30.34S GOLDSBORO FAIR 40 40 99 E12 30.34F GREENVILLE FAIR 37 32 81 CALM 30.39F HAVELOCK FAIR 40 28 62 E6 30.39S KENANSVILLE FAIR 38 33 81 E5 30.38S KINSTON FAIR 40 33 76 E3 30.38F NEW BERN FAIR 38 31 76 E3 30.40S RICHLANDS MOCLDY 37 28 70 NE7 30.37F ROCKY MOUNT CLOUDY 42 35 76 E3 30.39R WASHINGTON FAIR 35 30 80 CALM 30.40S WHITEVILLE FAIR 46 42 86 E7 30.32S $$ AMZ130-135-150-152-154-156-158-170-250-252-270-ANZ085-086-088-633-658-670-030600- MARINE OBSERVATIONS STATION/POSITION TIME TEMP WIND PRES WAVE SWELL AIR SEA DIR/SP/G HT/PER HT/PER (UTC) (F) (DEG/KT/KT) (MB) (FT/S) (FT/S) CHESAPEAKE LIGHT 0500 36 10/ 13/ 14 1029.9 64 E VA BEACH 0450 43 57 10/ 19/ 23 1028.0 6/ 6 DUCK 0500 1028.2 2 E DUCK 0411 35 N/A 3/ 6 10 NE DUCK 0452 37 N/A 3/ 6 OREGON INLET 0500 1028.5 HATTERAS CG 0500 1028.9 CAPE LOOKOUT 0500 46 50/ 22/ 24 1028.2 BEAUFORT LAB 0500 1027.6 27 SE WRIGHTSVLE NOT AVBL 5 SE WRIGHTSVLE NOT AVBL 225 S CAPE HAT 0450 67 73 30/ 16/ 19 1024.0 6/ 8 3/ 8 41 SE CHARLESTON 0450 64 67 80/ 14/ 16 1024.4 4/ 9 3/ 9 $$

USA.gov is the U.S. government's official web portal to all federal, state and local government web resources and services.